Location: C.E.K. Mees Observatory
(42.7003°N, 77.4088°W)
Time: 02:55:58
(UTC-05:00)

Envisat - Pass Details

Date: 24 November 2019
Orbit: 764 x 766 km, 98.1° (Epoch: 15 December)

Event Time Altitude Azimuth Distance (km) Brightness Sun altitude
Rises 19:09:45 0° 200° (SSW) 3,217 6.5 -27.1°
Reaches altitude 10° 19:12:30 10° 215° (SW) 2,296 5.9 -27.6°
Maximum altitude 19:16:28 23° 267° (W) 1,586 5.3 -28.3°
Drops below altitude 10° 19:20:28 10° 319° (NW) 2,309 5.9 -29.1°
Sets 19:23:15 0° 334° (NNW) 3,240 6.5 -29.6°
